Location: Melbourne
(37.8170°S, 144.9670°E)
Time: 12:12:07
(UTC+10:00)

Vanguard 1 Rocket - Visible Passes

Search period start: 02 July 2016 00:00
Search period end: 12 July 2016 00:00
Orbit: 651 x 4226 km, 34.3° (Epoch: 30 June)

Date Brightness Start Highest point End Pass type
(mag) Time Alt. Az. Time Alt. Az. Time Alt. Az.
02 Jul 10.1 03:32:18 18° NNE 03:32:18 18° NNE 03:35:07 10° NE visible
02 Jul 10.1 05:49:47 10° NW 05:53:40 13° NNW 05:58:32 10° N visible
03 Jul 9.8 04:42:38 18° NNW 04:42:38 18° NNW 04:48:21 10° NNE visible
03 Jul 9.5 20:11:09 10° NNW 20:14:13 17° N 20:14:13 17° N visible
04 Jul 10.3 03:35:40 13° NNE 03:35:40 13° NNE 03:37:01 10° NNE visible
04 Jul 9.5 19:00:37 10° N 19:05:03 15° NNE 19:07:15 13° NE visible
05 Jul 10.1 04:46:00 12° NNW 04:46:00 12° NNW 04:48:02 10° N visible
05 Jul 9.2 20:12:57 10° NW 20:17:34 25° N 20:17:34 25° N visible
06 Jul 9.2 19:01:19 10° NNW 19:08:17 22° NNE 19:10:35 19° NE visible
06 Jul 10.2 21:27:20 10° WNW 21:27:53 12° WNW 21:27:53 12° WNW visible
07 Jul 9.9 17:50:18 10° N 17:56:39 16° NNE 18:01:19 10° ENE visible
07 Jul 8.9 20:15:08 10° NW 20:20:54 32° NNW 20:20:54 32° NNW visible
08 Jul 8.9 19:02:47 10° NW 19:11:31 30° NNE 19:13:54 25° NE visible
08 Jul 10.1 21:30:09 10° WNW 21:31:12 14° WNW 21:31:12 14° WNW visible
09 Jul 9.7 17:50:37 10° NNW 17:59:53 23° NNE 18:05:52 10° ENE visible
09 Jul 8.7 20:17:34 10° WNW 20:24:11 40° NNW 20:24:11 40° NNW visible
10 Jul 8.6 19:04:39 10° NW 19:14:42 39° NNE 19:17:11 30° ENE visible
10 Jul 10.1 21:33:03 10° WNW 21:34:29 15° WNW 21:34:29 15° WNW visible
11 Jul 9.6 17:51:41 10° NNW 18:03:05 31° NNE 18:09:47 10° E visible
11 Jul 8.5 20:20:11 10° WNW 20:27:27 46° NW 20:27:27 46° NW visible
